Time,TemperatureF,DewpointF,PressureIn,WindDirection,WindDirectionDegrees,WindSpeedMPH,WindSpeedGustMPH,Humidity,HourlyPrecipIn,Conditions,Clouds,dailyrainin,SoftwareType,DateUTC
2013-06-03 00:01:00,77.5,74.7,29.95,SW,221,1.0,5.0,91,0.00,,,0.00,VWS V14.00,2013-06-03 04:01:00,
2013-06-03 00:02:00,77.4,74.6,29.94,WSW,238,1.0,3.0,91,0.00,,,0.00,VWS V14.00,2013-06-03 04:02:00,
2013-06-03 00:03:00,77.4,74.6,29.94,SSW,202,2.0,3.0,91,0.00,,,0.00,VWS V14.00,2013-06-03 04:03:00,
2013-06-03 00:08:00,77.5,74.7,29.94,SSW,207,2.0,6.0,91,0.00,,,0.00,VWS V14.00,2013-06-03 04:08:00,
2013-06-03 00:13:00,77.5,74.7,29.94,SSW,205,5.0,5.0,91,0.00,,,0.00,VWS V14.00,2013-06-03 04:13:00,
2013-06-03 00:18:00,77.5,74.7,29.94,SW,230,0.0,5.0,91,0.00,,,0.00,VWS V14.00,2013-06-03 04:18:00,
2013-06-03 00:23:00,77.5,74.7,29.94,SSW,207,0.0,3.0,91,0.00,,,0.00,VWS V14.00,2013-06-03 04:23:00,
2013-06-03 00:29:00,77.5,74.7,29.94,SW,235,0.0,4.0,91,0.00,,,0.00,VWS V14.00,2013-06-03 04:29:00,
2013-06-03 00:34:00,77.5,74.7,29.94,WSW,250,2.0,6.0,91,0.00,,,0.00,VWS V14.00,2013-06-03 04:34:00,
2013-06-03 00:39:00,77.4,74.6,29.94,SW,227,0.0,6.0,91,0.00,,,0.00,VWS V14.00,2013-06-03 04:39:00,
2013-06-03 00:44:00,77.3,74.5,29.94,West,260,0.0,2.0,91,0.00,,,0.00,VWS V14.00,2013-06-03 04:44:00,
2013-06-03 00:49:00,77.3,74.5,29.94,SE,141,0.0,4.0,91,0.00,,,0.00,VWS V14.00,2013-06-03 04:49:00,
2013-06-03 00:54:00,77.3,74.8,29.94,WSW,237,2.0,4.0,92,0.00,,,0.00,VWS V14.00,2013-06-03 04:54:00,
2013-06-03 00:59:00,77.3,74.8,29.93,WSW,241,0.0,4.0,92,0.00,,,0.00,VWS V14.00,2013-06-03 04:59:00,
2013-06-03 01:04:00,77.2,74.7,29.93,West,281,1.0,5.0,92,0.00,,,0.00,VWS V14.00,2013-06-03 05:04:00,
2013-06-03 01:09:00,77.2,74.7,29.93,WSW,244,0.0,5.0,92,0.00,,,0.00,VWS V14.00,2013-06-03 05:09:00,
2013-06-03 01:14:00,77.2,74.7,29.93,WSW,244,0.0,1.0,92,0.00,,,0.00,VWS V14.00,2013-06-03 05:14:00,
2013-06-03 01:20:00,77.2,74.7,29.93,West,265,2.0,4.0,92,0.00,,,0.00,VWS V14.00,2013-06-03 05:20:00,
2013-06-03 01:25:00,77.1,74.6,29.93,SE,141,0.0,2.0,92,0.00,,,0.00,VWS V14.00,2013-06-03 05:25:00,
2013-06-03 01:30:00,77.0,74.5,29.93,SSW,206,1.0,2.0,92,0.00,,,0.00,VWS V14.00,2013-06-03 05:30:00,
2013-06-03 01:35:00,77.0,74.5,29.93,West,267,0.0,3.0,92,0.00,,,0.00,VWS V14.00,2013-06-03 05:35:00,
2013-06-03 01:40:00,77.1,74.6,29.93,WSW,253,1.0,3.0,92,0.00,,,0.00,VWS V14.00,2013-06-03 05:40:00,
2013-06-03 01:45:00,77.1,74.6,29.93,WSW,249,1.0,2.0,92,0.00,,,0.00,VWS V14.00,2013-06-03 05:45:00,
2013-06-03 01:50:00,77.1,74.6,29.93,WSW,249,0.0,2.0,92,0.00,,,0.00,VWS V14.00,2013-06-03 05:50:00,
2013-06-03 01:55:00,77.1,74.6,29.93,WSW,246,0.0,1.0,92,0.00,,,0.00,VWS V14.00,2013-06-03 05:55:00,
2013-06-03 02:01:00,77.2,74.7,29.93,SW,229,0.0,4.0,92,0.00,,,0.00,VWS V14.00,2013-06-03 06:01:00,
2013-06-03 02:06:00,77.2,74.7,29.93,SSW,206,0.0,3.0,92,0.00,,,0.00,VWS V14.00,2013-06-03 06:06:00,
2013-06-03 02:11:00,77.2,74.7,29.92,WSW,245,0.0,3.0,92,0.00,,,0.00,VWS V14.00,2013-06-03 06:11:00,
2013-06-03 02:16:00,77.1,74.6,29.93,WSW,237,1.0,6.0,92,0.00,,,0.00,VWS V14.00,2013-06-03 06:16:00,
2013-06-03 02:21:00,77.1,74.6,29.92,SW,233,0.0,1.0,92,0.00,,,0.00,VWS V14.00,2013-06-03 06:21:00,
2013-06-03 02:26:00,77.1,74.6,29.92,SSW,213,4.0,5.0,92,0.00,,,0.00,VWS V14.00,2013-06-03 06:26:00,
2013-06-03 02:32:00,77.1,74.6,29.92,WNW,286,0.0,1.0,92,0.00,,,0.00,VWS V14.00,2013-06-03 06:32:00,
2013-06-03 02:37:00,77.1,74.6,29.92,WNW,286,0.0,2.0,92,0.00,,,0.00,VWS V14.00,2013-06-03 06:37:00,
2013-06-03 02:42:00,77.1,74.6,29.92,WNW,286,0.0,2.0,92,0.00,,,0.00,VWS V14.00,2013-06-03 06:42:00,
2013-06-03 02:47:00,77.1,74.6,29.91,SSW,212,0.0,3.0,92,0.00,,,0.00,VWS V14.00,2013-06-03 06:47:00,
2013-06-03 02:52:00,77.1,74.6,29.91,SSW,213,1.0,2.0,92,0.00,,,0.00,VWS V14.00,2013-06-03 06:52:00,
2013-06-03 02:57:00,77.1,74.6,29.91,NW,317,0.0,2.0,92,0.00,,,0.00,VWS V14.00,2013-06-03 06:57:00,
2013-06-03 03:03:00,77.1,74.6,29.91,SW,231,2.0,4.0,92,0.00,,,0.00,VWS V14.00,2013-06-03 07:03:00,
2013-06-03 03:08:00,77.1,74.9,29.90,WSW,239,1.0,4.0,93,0.00,,,0.00,VWS V14.00,2013-06-03 07:08:00,
2013-06-03 03:13:00,77.2,75.0,29.90,WNW,300,0.0,2.0,93,0.00,,,0.00,VWS V14.00,2013-06-03 07:13:00,
2013-06-03 03:18:00,77.2,75.0,29.91,WSW,244,2.0,4.0,93,0.00,,,0.00,VWS V14.00,2013-06-03 07:18:00,
2013-06-03 03:23:00,77.2,75.0,29.90,WSW,246,0.0,2.0,93,0.00,,,0.00,VWS V14.00,2013-06-03 07:23:00,
2013-06-03 03:28:00,77.2,75.0,29.90,SSE,165,0.0,3.0,93,0.00,,,0.00,VWS V14.00,2013-06-03 07:28:00,
2013-06-03 03:34:00,77.3,74.8,29.90,WSW,241,1.0,4.0,92,0.00,,,0.00,VWS V14.00,2013-06-03 07:34:00,
2013-06-03 03:39:00,77.3,74.8,29.90,SSW,209,0.0,5.0,92,0.00,,,0.00,VWS V14.00,2013-06-03 07:39:00,
2013-06-03 03:44:00,77.4,74.9,29.90,NW,306,3.0,6.0,92,0.00,,,0.00,VWS V14.00,2013-06-03 07:44:00,
2013-06-03 03:49:00,77.4,74.9,29.90,SW,221,2.0,6.0,92,0.00,,,0.00,VWS V14.00,2013-06-03 07:49:00,
2013-06-03 03:54:00,77.5,75.0,29.90,SW,218,2.0,6.0,92,0.00,,,0.00,VWS V14.00,2013-06-03 07:54:00,
2013-06-03 03:59:00,77.5,75.0,29.89,SW,217,0.0,6.0,92,0.00,,,0.00,VWS V14.00,2013-06-03 07:59:00,
2013-06-03 04:04:00,77.5,75.0,29.89,SW,218,3.0,5.0,92,0.00,,,0.00,VWS V14.00,2013-06-03 08:04:00,
2013-06-03 04:09:00,77.6,75.1,29.89,WSW,242,0.0,6.0,92,0.00,,,0.00,VWS V14.00,2013-06-03 08:09:00,
2013-06-03 04:14:00,77.6,75.1,29.89,SSW,210,0.0,3.0,92,0.00,,,0.00,VWS V14.00,2013-06-03 08:14:00,
2013-06-03 04:19:00,77.6,75.1,29.89,SSW,196,0.0,6.0,92,0.00,,,0.00,VWS V14.00,2013-06-03 08:19:00,
2013-06-03 04:24:00,77.6,75.1,29.89,SW,225,0.0,3.0,92,0.00,,,0.00,VWS V14.00,2013-06-03 08:24:00,
2013-06-03 04:30:00,77.6,75.1,29.89,WSW,252,2.0,3.0,92,0.00,,,0.00,VWS V14.00,2013-06-03 08:30:00,
2013-06-03 04:35:00,77.6,75.1,29.89,SSW,206,0.0,3.0,92,0.00,,,0.00,VWS V14.00,2013-06-03 08:35:00,
2013-06-03 04:40:00,77.7,75.2,29.89,SW,219,0.0,3.0,92,0.00,,,0.00,VWS V14.00,2013-06-03 08:40:00,
2013-06-03 04:45:00,77.6,75.1,29.89,WSW,254,0.0,3.0,92,0.00,,,0.00,VWS V14.00,2013-06-03 08:45:00,
2013-06-03 04:50:00,77.6,75.1,29.89,WSW,253,0.0,3.0,92,0.00,,,0.00,VWS V14.00,2013-06-03 08:50:00,
2013-06-03 04:55:00,77.6,75.1,29.89,WSW,251,0.0,3.0,92,0.00,,,0.00,VWS V14.00,2013-06-03 08:55:00,
2013-06-03 05:00:00,77.6,75.1,29.89,WSW,251,0.0,4.0,92,0.00,,,0.00,VWS V14.00,2013-06-03 09:00:00,
2013-06-03 05:05:00,77.7,75.2,29.89,ESE,122,1.0,4.0,92,0.00,,,0.00,VWS V14.00,2013-06-03 09:05:00,
2013-06-03 05:10:00,77.6,75.1,29.89,SSW,199,0.0,4.0,92,0.00,,,0.00,VWS V14.00,2013-06-03 09:10:00,
2013-06-03 05:16:00,77.6,75.4,29.89,NW,313,0.0,2.0,93,0.00,,,0.00,VWS V14.00,2013-06-03 09:16:00,
2013-06-03 05:21:00,77.4,75.2,29.89,WSW,238,0.0,3.0,93,0.00,,,0.00,VWS V14.00,2013-06-03 09:21:00,
2013-06-03 05:26:00,77.2,75.0,29.88,North,360,0.0,2.0,93,0.00,,,0.00,VWS V14.00,2013-06-03 09:26:00,
2013-06-03 05:31:00,77.1,75.2,29.89,North,360,0.0,2.0,94,0.00,,,0.00,VWS V14.00,2013-06-03 09:31:00,
2013-06-03 05:36:00,76.9,75.1,29.88,North,360,0.0,1.0,94,0.00,,,0.00,VWS V14.00,2013-06-03 09:36:00,
2013-06-03 05:41:00,76.8,75.3,29.89,North,10,0.0,0.0,95,0.00,,,0.00,VWS V14.00,2013-06-03 09:41:00,
2013-06-03 05:46:00,76.7,75.2,29.88,North,10,0.0,1.0,95,0.00,,,0.00,VWS V14.00,2013-06-03 09:46:00,
2013-06-03 05:51:00,76.6,75.1,29.88,North,10,0.0,0.0,95,0.00,,,0.00,VWS V14.00,2013-06-03 09:51:00,
2013-06-03 05:56:00,76.6,75.4,29.88,North,10,0.0,0.0,96,0.00,,,0.00,VWS V14.00,2013-06-03 09:56:00,
2013-06-03 06:01:00,76.6,75.4,29.88,North,10,0.0,0.0,96,0.00,,,0.00,VWS V14.00,2013-06-03 10:01:00,
2013-06-03 06:06:00,76.6,75.4,29.89,WSW,254,1.0,2.0,96,0.00,,,0.00,VWS V14.00,2013-06-03 10:06:00,
2013-06-03 06:11:00,76.6,75.4,29.89,West,263,0.0,1.0,96,0.03,,,0.03,VWS V14.00,2013-06-03 10:11:00,
2013-06-03 06:17:00,76.6,75.7,29.89,West,263,0.0,2.0,97,0.09,,,0.09,VWS V14.00,2013-06-03 10:17:00,
2013-06-03 06:22:00,76.6,75.7,29.89,South,186,1.0,1.0,97,0.15,,,0.15,VWS V14.00,2013-06-03 10:22:00,
2013-06-03 06:27:00,76.7,75.8,29.89,South,186,0.0,1.0,97,0.15,,,0.15,VWS V14.00,2013-06-03 10:27:00,
2013-06-03 06:32:00,76.7,75.8,29.89,South,186,1.0,2.0,97,0.16,,,0.16,VWS V14.00,2013-06-03 10:32:00,
2013-06-03 06:37:00,76.7,75.8,29.89,South,186,0.0,2.0,97,0.16,,,0.16,VWS V14.00,2013-06-03 10:37:00,
2013-06-03 06:42:00,76.6,75.7,29.89,South,186,0.0,0.0,97,0.16,,,0.16,VWS V14.00,2013-06-03 10:42:00,
2013-06-03 06:47:00,76.7,75.8,29.89,South,186,0.0,0.0,97,0.16,,,0.16,VWS V14.00,2013-06-03 10:47:00,
2013-06-03 06:52:00,76.7,75.8,29.89,South,186,0.0,0.0,97,0.16,,,0.16,VWS V14.00,2013-06-03 10:52:00,
2013-06-03 06:57:00,76.7,75.8,29.90,South,186,0.0,0.0,97,0.16,,,0.16,VWS V14.00,2013-06-03 10:57:00,
2013-06-03 07:02:00,76.7,75.8,29.90,South,186,0.0,0.0,97,0.16,,,0.16,VWS V14.00,2013-06-03 11:02:00,
2013-06-03 07:08:00,76.8,76.2,29.90,South,186,0.0,0.0,98,0.16,,,0.16,VWS V14.00,2013-06-03 11:08:00,
2013-06-03 07:13:00,76.8,76.2,29.90,South,186,0.0,0.0,98,0.14,,,0.16,VWS V14.00,2013-06-03 11:13:00,
2013-06-03 07:18:00,76.9,76.3,29.90,South,186,0.0,0.0,98,0.14,,,0.16,VWS V14.00,2013-06-03 11:18:00,
2013-06-03 07:23:00,77.0,76.4,29.90,South,186,0.0,1.0,98,0.01,,,0.16,VWS V14.00,2013-06-03 11:23:00,
2013-06-03 07:28:00,77.0,76.4,29.90,WSW,240,1.0,2.0,98,0.01,,,0.16,VWS V14.00,2013-06-03 11:28:00,
2013-06-03 07:33:00,77.1,76.5,29.90,WSW,244,0.0,2.0,98,0.00,,,0.16,VWS V14.00,2013-06-03 11:33:00,
2013-06-03 07:38:00,77.3,76.7,29.90,NW,314,1.0,2.0,98,0.00,,,0.16,VWS V14.00,2013-06-03 11:38:00,
2013-06-03 07:43:00,77.3,76.7,29.90,WNW,287,0.0,1.0,98,0.00,,,0.16,VWS V14.00,2013-06-03 11:43:00,
2013-06-03 07:48:00,77.4,76.8,29.90,West,268,0.0,2.0,98,0.00,,,0.16,VWS V14.00,2013-06-03 11:48:00,
2013-06-03 07:54:00,77.5,76.9,29.90,West,268,0.0,1.0,98,0.00,,,0.16,VWS V14.00,2013-06-03 11:54:00,
2013-06-03 07:59:00,77.5,76.9,29.90,SSW,209,0.0,3.0,98,0.00,,,0.16,VWS V14.00,2013-06-03 11:59:00,
2013-06-03 08:04:00,77.7,77.1,29.90,SSW,209,1.0,5.0,98,0.00,,,0.16,VWS V14.00,2013-06-03 12:04:00,
2013-06-03 08:09:00,77.9,77.3,29.90,West,279,0.0,5.0,98,0.00,,,0.16,VWS V14.00,2013-06-03 12:09:00,
2013-06-03 08:14:00,78.1,77.5,29.90,West,271,0.0,2.0,98,0.00,,,0.16,VWS V14.00,2013-06-03 12:14:00,
2013-06-03 08:19:00,78.3,77.7,29.90,WNW,291,2.0,3.0,98,0.00,,,0.16,VWS V14.00,2013-06-03 12:19:00,
2013-06-03 08:24:00,78.2,77.3,29.90,West,267,0.0,2.0,97,0.00,,,0.16,VWS V14.00,2013-06-03 12:24:00,
2013-06-03 08:29:00,78.3,77.4,29.90,WSW,254,0.0,3.0,97,0.00,,,0.16,VWS V14.00,2013-06-03 12:29:00,
2013-06-03 08:34:00,78.3,77.4,29.90,NW,323,0.0,2.0,97,0.00,,,0.16,VWS V14.00,2013-06-03 12:34:00,
2013-06-03 08:39:00,78.5,77.6,29.90,NNW,345,1.0,2.0,97,0.00,,,0.16,VWS V14.00,2013-06-03 12:39:00,
2013-06-03 08:44:00,78.4,77.5,29.90,NW,307,2.0,5.0,97,0.00,,,0.16,VWS V14.00,2013-06-03 12:44:00,
2013-06-03 08:49:00,78.4,77.2,29.90,WSW,241,1.0,5.0,96,0.00,,,0.16,VWS V14.00,2013-06-03 12:49:00,
2013-06-03 08:54:00,78.4,77.2,29.91,West,266,1.0,4.0,96,0.00,,,0.16,VWS V14.00,2013-06-03 12:54:00,
2013-06-03 08:59:00,78.5,77.3,29.91,West,274,0.0,4.0,96,0.00,,,0.16,VWS V14.00,2013-06-03 12:59:00,
2013-06-03 09:05:00,78.5,77.3,29.91,South,181,0.0,4.0,96,0.00,,,0.16,VWS V14.00,2013-06-03 13:05:00,
2013-06-03 09:10:00,78.6,77.4,29.90,SSW,194,1.0,4.0,96,0.00,,,0.16,VWS V14.00,2013-06-03 13:10:00,
2013-06-03 09:15:00,78.9,77.7,29.90,SW,225,0.0,1.0,96,0.00,,,0.16,VWS V14.00,2013-06-03 13:15:00,
2013-06-03 09:20:00,79.1,77.6,29.90,West,259,1.0,4.0,95,0.00,,,0.16,VWS V14.00,2013-06-03 13:20:00,
2013-06-03 09:25:00,79.4,77.5,29.90,West,275,1.0,5.0,94,0.00,,,0.16,VWS V14.00,2013-06-03 13:25:00,
2013-06-03 09:30:00,79.6,77.7,29.90,West,259,2.0,5.0,94,0.00,,,0.16,VWS V14.00,2013-06-03 13:30:00,
2013-06-03 09:35:00,79.6,77.4,29.89,SE,134,0.0,3.0,93,0.00,,,0.16,VWS V14.00,2013-06-03 13:35:00,
2013-06-03 09:40:00,79.8,77.6,29.89,SW,217,2.0,5.0,93,0.00,,,0.16,VWS V14.00,2013-06-03 13:40:00,
2013-06-03 09:45:00,79.6,77.1,29.90,WSW,252,3.0,6.0,92,0.00,,,0.16,VWS V14.00,2013-06-03 13:45:00,
2013-06-03 09:51:00,79.6,77.1,29.90,NW,304,0.0,6.0,92,0.00,,,0.16,VWS V14.00,2013-06-03 13:51:00,
2013-06-03 09:56:00,79.8,77.3,29.89,SSW,211,0.0,3.0,92,0.00,,,0.16,VWS V14.00,2013-06-03 13:56:00,
2013-06-03 10:01:00,79.9,77.0,29.89,WSW,240,1.0,6.0,91,0.00,,,0.16,VWS V14.00,2013-06-03 14:01:00,
2013-06-03 10:06:00,80.1,77.2,29.89,WSW,243,1.0,9.0,91,0.00,,,0.16,VWS V14.00,2013-06-03 14:06:00,
2013-06-03 10:11:00,80.6,77.7,29.89,NW,314,1.0,3.0,91,0.00,,,0.16,VWS V14.00,2013-06-03 14:11:00,
2013-06-03 10:16:00,81.3,78.1,29.89,NNW,328,1.0,7.0,90,0.00,,,0.16,VWS V14.00,2013-06-03 14:16:00,
2013-06-03 10:22:00,81.8,77.9,29.89,SSW,207,1.0,2.0,88,0.00,,,0.16,VWS V14.00,2013-06-03 14:22:00,
2013-06-03 10:27:00,82.3,78.1,29.89,SW,221,0.0,10.0,87,0.00,,,0.16,VWS V14.00,2013-06-03 14:27:00,
2013-06-03 13:10:00,79.5,77.3,29.89,West,270,3.0,12.0,93,0.01,,,0.17,VWS V14.00,2013-06-03 17:10:00,
2013-06-03 13:24:00,76.0,71.5,29.92,NNW,342,4.0,13.0,86,0.02,,,0.18,VWS V14.00,2013-06-03 17:24:00,
2013-06-03 13:29:00,73.2,70.1,29.91,WNW,287,4.0,13.0,90,0.18,,,0.34,VWS V14.00,2013-06-03 17:29:00,
2013-06-03 13:34:00,71.8,69.7,29.91,SW,215,2.0,7.0,93,0.30,,,0.46,VWS V14.00,2013-06-03 17:34:00,
2013-06-03 13:39:00,71.3,69.5,29.90,NNW,338,0.0,7.0,94,0.37,,,0.53,VWS V14.00,2013-06-03 17:39:00,
2013-06-03 13:44:00,71.0,69.5,29.89,SW,232,3.0,4.0,95,0.47,,,0.63,VWS V14.00,2013-06-03 17:44:00,
2013-06-03 13:49:00,70.8,69.6,29.89,SSE,161,0.0,4.0,96,0.52,,,0.68,VWS V14.00,2013-06-03 17:49:00,
2013-06-03 13:54:00,70.7,69.5,29.89,SSE,162,0.0,0.0,96,0.52,,,0.69,VWS V14.00,2013-06-03 17:54:00,
2013-06-03 13:59:00,70.6,69.4,29.89,South,187,0.0,2.0,96,0.53,,,0.70,VWS V14.00,2013-06-03 17:59:00,
2013-06-03 14:04:00,70.6,69.7,29.89,South,188,0.0,1.0,97,0.54,,,0.71,VWS V14.00,2013-06-03 18:04:00,
2013-06-03 14:10:00,70.7,69.8,29.89,South,187,0.0,2.0,97,0.56,,,0.73,VWS V14.00,2013-06-03 18:10:00,
2013-06-03 14:15:00,70.7,69.8,29.90,South,187,0.0,0.0,97,0.57,,,0.74,VWS V14.00,2013-06-03 18:15:00,
2013-06-03 14:20:00,70.7,69.8,29.90,South,188,0.0,0.0,97,0.58,,,0.75,VWS V14.00,2013-06-03 18:20:00,
2013-06-03 14:25:00,70.7,69.8,29.90,South,187,0.0,0.0,97,0.38,,,0.77,VWS V14.00,2013-06-03 18:25:00,
2013-06-03 14:30:00,70.7,69.8,29.90,South,187,0.0,0.0,97,0.40,,,0.79,VWS V14.00,2013-06-03 18:30:00,
2013-06-03 14:35:00,70.8,69.9,29.90,South,187,0.0,1.0,97,0.41,,,0.80,VWS V14.00,2013-06-03 18:35:00,
2013-06-03 14:40:00,70.8,69.9,29.90,South,187,0.0,1.0,97,0.42,,,0.81,VWS V14.00,2013-06-03 18:40:00,
2013-06-03 14:45:00,70.8,69.9,29.90,South,187,0.0,1.0,97,0.26,,,0.82,VWS V14.00,2013-06-03 18:45:00,
2013-06-03 15:00:00,70.8,70.2,29.89,South,180,0.0,0.0,98,0.05,,,0.74,VWS V14.00,2013-06-03 19:00:00,
2013-06-03 15:13:00,70.9,70.3,29.89,South,185,1.0,1.0,98,0.17,,,0.87,VWS V14.00,2013-06-03 19:13:00,
2013-06-03 15:18:00,70.8,70.2,29.89,South,184,0.0,2.0,98,0.17,,,0.87,VWS V14.00,2013-06-03 19:18:00,
2013-06-03 15:23:00,71.0,70.4,29.89,South,185,0.0,0.0,98,0.11,,,0.87,VWS V14.00,2013-06-03 19:23:00,
2013-06-03 15:29:00,71.1,70.5,29.89,South,184,0.0,0.0,98,0.11,,,0.87,VWS V14.00,2013-06-03 19:29:00,
2013-06-03 15:34:00,71.0,70.4,29.88,SSE,149,1.0,2.0,98,0.08,,,0.87,VWS V14.00,2013-06-03 19:34:00,
2013-06-03 15:39:00,71.1,70.5,29.88,SSE,149,0.0,2.0,98,0.08,,,0.87,VWS V14.00,2013-06-03 19:39:00,
2013-06-03 15:44:00,71.4,70.8,29.88,ESE,114,0.0,1.0,98,0.05,,,0.87,VWS V14.00,2013-06-03 19:44:00,
2013-06-03 15:49:00,71.6,71.0,29.88,ESE,113,0.0,1.0,98,0.05,,,0.87,VWS V14.00,2013-06-03 19:49:00,
2013-06-03 15:54:00,71.8,71.5,29.88,ESE,113,0.0,1.0,99,0.16,,,0.87,VWS V14.00,2013-06-03 19:54:00,
2013-06-03 15:59:00,72.0,71.7,29.88,ESE,113,0.0,1.0,99,0.16,,,0.87,VWS V14.00,2013-06-03 19:59:00,
2013-06-03 16:04:00,72.1,71.8,29.88,ESE,113,0.0,0.0,99,0.13,,,0.87,VWS V14.00,2013-06-03 20:04:00,
2013-06-03 16:09:00,72.4,72.1,29.88,ESE,113,0.0,0.0,99,0.13,,,0.87,VWS V14.00,2013-06-03 20:09:00,
2013-06-03 16:14:00,72.5,72.2,29.88,ESE,113,0.0,0.0,99,0.00,,,0.87,VWS V14.00,2013-06-03 20:14:00,
2013-06-03 16:19:00,72.7,72.4,29.88,ESE,113,0.0,0.0,99,0.00,,,0.87,VWS V14.00,2013-06-03 20:19:00,
2013-06-03 16:24:00,72.7,72.4,29.89,ESE,113,1.0,2.0,99,0.00,,,0.87,VWS V14.00,2013-06-03 20:24:00,
2013-06-03 16:29:00,72.8,72.2,29.90,ESE,113,0.0,2.0,98,0.00,,,0.87,VWS V14.00,2013-06-03 20:29:00,
2013-06-03 16:34:00,72.8,72.2,29.90,ESE,113,0.0,2.0,98,0.00,,,0.87,VWS V14.00,2013-06-03 20:34:00,
2013-06-03 16:39:00,72.6,72.0,29.90,West,274,2.0,2.0,98,0.03,,,0.90,VWS V14.00,2013-06-03 20:39:00,
2013-06-03 16:44:00,72.2,71.6,29.89,WNW,299,1.0,4.0,98,0.08,,,0.95,VWS V14.00,2013-06-03 20:44:00,
2013-06-03 16:49:00,71.8,71.2,29.87,SSE,163,1.0,4.0,98,0.12,,,0.99,VWS V14.00,2013-06-03 20:49:00,
2013-06-03 16:55:00,71.8,71.2,29.86,SE,146,0.0,3.0,98,0.13,,,1.00,VWS V14.00,2013-06-03 20:55:00,
2013-06-03 17:00:00,72.2,71.6,29.86,SE,133,1.0,3.0,98,0.13,,,1.00,VWS V14.00,2013-06-03 21:00:00,
2013-06-03 17:05:00,72.6,72.3,29.86,WSW,240,0.0,2.0,99,0.13,,,1.00,VWS V14.00,2013-06-03 21:05:00,
2013-06-03 17:10:00,72.9,72.3,29.86,WSW,240,0.0,2.0,98,0.13,,,1.00,VWS V14.00,2013-06-03 21:10:00,
2013-06-03 17:15:00,73.3,73.0,29.85,South,171,0.0,2.0,99,0.13,,,1.00,VWS V14.00,2013-06-03 21:15:00,
2013-06-03 17:20:00,73.5,73.2,29.85,South,171,0.0,2.0,99,0.13,,,1.00,VWS V14.00,2013-06-03 21:20:00,
2013-06-03 17:25:00,73.6,73.0,29.85,South,175,0.0,2.0,98,0.13,,,1.00,VWS V14.00,2013-06-03 21:25:00,
2013-06-03 17:31:00,73.9,73.6,29.86,South,175,0.0,2.0,99,0.13,,,1.00,VWS V14.00,2013-06-03 21:31:00,
2013-06-03 17:36:00,73.9,73.3,29.86,South,175,0.0,1.0,98,0.13,,,1.00,VWS V14.00,2013-06-03 21:36:00,
2013-06-03 17:41:00,73.8,73.2,29.86,South,175,1.0,1.0,98,0.09,,,1.00,VWS V14.00,2013-06-03 21:41:00,
2013-06-03 17:46:00,73.6,73.0,29.86,SW,224,1.0,2.0,98,0.09,,,1.00,VWS V14.00,2013-06-03 21:46:00,
2013-06-03 17:51:00,73.3,72.7,29.86,SW,226,0.0,1.0,98,0.00,,,1.00,VWS V14.00,2013-06-03 21:51:00,
2013-06-03 17:57:00,73.3,72.7,29.86,SW,226,0.0,1.0,98,0.00,,,1.00,VWS V14.00,2013-06-03 21:57:00,
2013-06-03 18:02:00,73.4,72.8,29.86,SW,226,0.0,0.0,98,0.00,,,1.00,VWS V14.00,2013-06-03 22:02:00,
2013-06-03 18:07:00,73.5,72.9,29.85,SW,226,0.0,1.0,98,0.00,,,1.00,VWS V14.00,2013-06-03 22:07:00,
2013-06-03 18:12:00,73.6,73.0,29.85,SW,226,0.0,0.0,98,0.00,,,1.00,VWS V14.00,2013-06-03 22:12:00,
2013-06-03 18:17:00,73.7,73.1,29.84,SW,226,0.0,2.0,98,0.00,,,1.00,VWS V14.00,2013-06-03 22:17:00,
2013-06-03 18:22:00,73.8,73.2,29.84,SW,226,0.0,1.0,98,0.00,,,1.00,VWS V14.00,2013-06-03 22:22:00,
2013-06-03 18:27:00,73.9,73.3,29.84,West,265,0.0,4.0,98,0.00,,,1.00,VWS V14.00,2013-06-03 22:27:00,
2013-06-03 18:32:00,73.8,73.2,29.84,SW,228,0.0,1.0,98,0.00,,,1.00,VWS V14.00,2013-06-03 22:32:00,
2013-06-03 18:37:00,73.6,73.0,29.84,WSW,246,1.0,3.0,98,0.00,,,1.00,VWS V14.00,2013-06-03 22:37:00,
2013-06-03 18:43:00,73.5,72.9,29.83,WSW,246,0.0,0.0,98,0.00,,,1.00,VWS V14.00,2013-06-03 22:43:00,
2013-06-03 18:48:00,73.4,72.8,29.83,WSW,246,1.0,1.0,98,0.00,,,1.00,VWS V14.00,2013-06-03 22:48:00,
2013-06-03 18:53:00,73.4,72.8,29.83,WSW,240,0.0,1.0,98,0.00,,,1.00,VWS V14.00,2013-06-03 22:53:00,
2013-06-03 18:58:00,73.4,72.8,29.82,WSW,240,0.0,2.0,98,0.00,,,1.00,VWS V14.00,2013-06-03 22:58:00,
2013-06-03 19:03:00,73.5,72.9,29.82,WSW,240,0.0,1.0,98,0.00,,,1.00,VWS V14.00,2013-06-03 23:03:00,
2013-06-03 19:08:00,73.6,73.0,29.82,WSW,240,0.0,1.0,98,0.00,,,1.00,VWS V14.00,2013-06-03 23:08:00,
2013-06-03 19:13:00,73.8,73.2,29.82,WSW,240,0.0,0.0,98,0.00,,,1.00,VWS V14.00,2013-06-03 23:13:00,
2013-06-03 19:18:00,73.9,73.3,29.82,WSW,240,0.0,1.0,98,0.00,,,1.00,VWS V14.00,2013-06-03 23:18:00,
2013-06-03 19:23:00,74.0,73.4,29.83,WSW,240,0.0,1.0,98,0.00,,,1.00,VWS V14.00,2013-06-03 23:23:00,
2013-06-03 19:29:00,74.2,73.6,29.83,WSW,240,0.0,1.0,98,0.00,,,1.00,VWS V14.00,2013-06-03 23:29:00,
2013-06-03 19:34:00,74.2,73.6,29.82,WSW,240,0.0,0.0,98,0.00,,,1.00,VWS V14.00,2013-06-03 23:34:00,
2013-06-03 19:39:00,74.3,73.7,29.82,WSW,240,0.0,0.0,98,0.00,,,1.00,VWS V14.00,2013-06-03 23:39:00,
2013-06-03 19:44:00,74.5,74.2,29.83,WSW,240,0.0,1.0,99,0.00,,,1.00,VWS V14.00,2013-06-03 23:44:00,
2013-06-03 19:49:00,74.7,74.4,29.83,WSW,240,0.0,2.0,99,0.00,,,1.00,VWS V14.00,2013-06-03 23:49:00,
2013-06-03 19:54:00,74.7,74.1,29.83,WSW,240,0.0,0.0,98,0.00,,,1.00,VWS V14.00,2013-06-03 23:54:00,
2013-06-03 19:59:00,74.8,74.2,29.83,WSW,240,0.0,0.0,98,0.00,,,1.00,VWS V14.00,2013-06-03 23:59:00,
2013-06-03 20:04:00,74.8,74.2,29.83,WSW,240,0.0,0.0,98,0.00,,,1.00,VWS V14.00,2013-06-04 00:04:00,
2013-06-03 20:09:00,74.8,74.2,29.83,WSW,240,0.0,0.0,98,0.00,,,1.00,VWS V14.00,2013-06-04 00:09:00,
2013-06-03 20:14:00,74.6,74.0,29.83,WSW,240,0.0,0.0,98,0.00,,,1.00,VWS V14.00,2013-06-04 00:14:00,
2013-06-03 20:20:00,74.6,74.0,29.83,WSW,240,0.0,0.0,98,0.00,,,1.00,VWS V14.00,2013-06-04 00:20:00,
2013-06-03 20:25:00,74.5,73.9,29.84,WSW,240,0.0,1.0,98,0.00,,,1.00,VWS V14.00,2013-06-04 00:25:00,
2013-06-03 20:30:00,74.3,73.7,29.84,WSW,240,0.0,1.0,98,0.00,,,1.00,VWS V14.00,2013-06-04 00:30:00,
2013-06-03 20:35:00,74.2,73.6,29.84,WSW,240,0.0,1.0,98,0.00,,,1.00,VWS V14.00,2013-06-04 00:35:00,
2013-06-03 20:40:00,74.1,73.5,29.85,WSW,240,0.0,1.0,98,0.00,,,1.00,VWS V14.00,2013-06-04 00:40:00,
2013-06-03 20:45:00,74.1,73.5,29.85,WSW,240,0.0,0.0,98,0.00,,,1.00,VWS V14.00,2013-06-04 00:45:00,
2013-06-03 20:50:00,74.1,73.5,29.85,WSW,240,0.0,0.0,98,0.00,,,1.00,VWS V14.00,2013-06-04 00:50:00,
2013-06-03 20:55:00,74.0,73.4,29.86,WSW,240,0.0,0.0,98,0.00,,,1.00,VWS V14.00,2013-06-04 00:55:00,
2013-06-03 21:00:00,73.9,73.3,29.86,WSW,240,0.0,0.0,98,0.00,,,1.00,VWS V14.00,2013-06-04 01:00:00,
2013-06-03 21:05:00,73.9,73.3,29.86,WSW,240,0.0,0.0,98,0.00,,,1.00,VWS V14.00,2013-06-04 01:05:00,
2013-06-03 21:11:00,73.8,73.2,29.86,WSW,240,0.0,0.0,98,0.00,,,1.00,VWS V14.00,2013-06-04 01:11:00,
2013-06-03 21:16:00,73.8,73.2,29.87,WSW,240,0.0,1.0,98,0.00,,,1.00,VWS V14.00,2013-06-04 01:16:00,
2013-06-03 21:21:00,73.8,73.2,29.87,WSW,240,0.0,1.0,98,0.00,,,1.00,VWS V14.00,2013-06-04 01:21:00,
2013-06-03 21:26:00,73.8,73.2,29.87,WSW,240,0.0,0.0,98,0.00,,,1.00,VWS V14.00,2013-06-04 01:26:00,
2013-06-03 21:31:00,73.8,73.2,29.87,WSW,240,0.0,0.0,98,0.00,,,1.00,VWS V14.00,2013-06-04 01:31:00,
2013-06-03 21:36:00,73.8,73.5,29.87,WSW,240,0.0,0.0,99,0.00,,,1.00,VWS V14.00,2013-06-04 01:36:00,
2013-06-03 21:41:00,73.7,73.4,29.88,WSW,240,0.0,0.0,99,0.00,,,1.00,VWS V14.00,2013-06-04 01:41:00,
2013-06-03 21:46:00,73.7,73.1,29.88,WSW,240,0.0,0.0,98,0.00,,,1.00,VWS V14.00,2013-06-04 01:46:00,
2013-06-03 21:52:00,73.6,73.0,29.88,WSW,240,0.0,0.0,98,0.00,,,1.00,VWS V14.00,2013-06-04 01:52:00,
2013-06-03 21:57:00,73.5,72.9,29.88,WSW,240,0.0,0.0,98,0.00,,,1.00,VWS V14.00,2013-06-04 01:57:00,
2013-06-03 22:02:00,73.3,72.7,29.88,WSW,240,0.0,0.0,98,0.00,,,1.00,VWS V14.00,2013-06-04 02:02:00,
2013-06-03 22:07:00,73.2,72.6,29.88,WSW,240,0.0,0.0,98,0.00,,,1.00,VWS V14.00,2013-06-04 02:07:00,
2013-06-03 22:12:00,73.0,72.4,29.89,WSW,240,0.0,0.0,98,0.00,,,1.00,VWS V14.00,2013-06-04 02:12:00,
2013-06-03 22:17:00,73.0,72.4,29.89,WSW,240,0.0,0.0,98,0.00,,,1.00,VWS V14.00,2013-06-04 02:17:00,
2013-06-03 22:22:00,73.0,72.4,29.89,WSW,240,0.0,0.0,98,0.00,,,1.00,VWS V14.00,2013-06-04 02:22:00,
2013-06-03 22:27:00,73.0,72.4,29.89,WSW,240,0.0,0.0,98,0.00,,,1.00,VWS V14.00,2013-06-04 02:27:00,
2013-06-03 22:32:00,72.9,72.3,29.89,WSW,240,0.0,0.0,98,0.00,,,1.00,VWS V14.00,2013-06-04 02:32:00,
2013-06-03 22:37:00,72.9,72.6,29.90,WSW,240,0.0,0.0,99,0.00,,,1.00,VWS V14.00,2013-06-04 02:37:00,
2013-06-03 22:42:00,72.9,72.3,29.91,WSW,240,0.0,0.0,98,0.00,,,1.00,VWS V14.00,2013-06-04 02:42:00,
2013-06-03 22:48:00,72.8,72.5,29.91,WSW,240,0.0,0.0,99,0.00,,,1.00,VWS V14.00,2013-06-04 02:48:00,
2013-06-03 22:53:00,72.8,72.5,29.91,WSW,240,0.0,0.0,99,0.00,,,1.00,VWS V14.00,2013-06-04 02:53:00,
2013-06-03 22:58:00,72.7,72.4,29.91,WSW,240,0.0,0.0,99,0.00,,,1.00,VWS V14.00,2013-06-04 02:58:00,
2013-06-03 23:03:00,72.7,72.4,29.91,WSW,240,0.0,0.0,99,0.00,,,1.00,VWS V14.00,2013-06-04 03:03:00,
2013-06-03 23:08:00,72.6,72.3,29.91,WSW,240,0.0,0.0,99,0.00,,,1.00,VWS V14.00,2013-06-04 03:08:00,
2013-06-03 23:14:00,72.6,72.3,29.91,WSW,240,0.0,0.0,99,0.01,,,1.01,VWS V14.00,2013-06-04 03:14:00,
2013-06-03 23:19:00,72.6,72.3,29.91,WSW,240,0.0,1.0,99,0.01,,,1.01,VWS V14.00,2013-06-04 03:19:00,
2013-06-03 23:24:00,72.7,72.4,29.91,WSW,240,0.0,1.0,99,0.01,,,1.01,VWS V14.00,2013-06-04 03:24:00,
2013-06-03 23:29:00,72.6,72.3,29.90,WSW,240,0.0,1.0,99,0.01,,,1.01,VWS V14.00,2013-06-04 03:29:00,
2013-06-03 23:34:00,72.7,72.4,29.89,WSW,240,0.0,1.0,99,0.01,,,1.01,VWS V14.00,2013-06-04 03:34:00,
2013-06-03 23:39:00,72.8,72.5,29.89,SW,229,0.0,1.0,99,0.01,,,1.01,VWS V14.00,2013-06-04 03:39:00,
2013-06-03 23:44:00,73.0,72.7,29.90,SW,229,0.0,0.0,99,0.01,,,1.01,VWS V14.00,2013-06-04 03:44:00,
2013-06-03 23:50:00,73.1,72.8,29.90,SW,229,0.0,0.0,99,0.01,,,1.01,VWS V14.00,2013-06-04 03:50:00,
2013-06-03 23:55:00,73.2,72.9,29.90,SW,229,0.0,0.0,99,0.01,,,1.01,VWS V14.00,2013-06-04 03:55:00,